SCP
0 0 0 0 0 0 0 0 0 0 0 0 0 0 0 0 0 0 0 -0 -0 -0 -0 -0 -0 -0 -0 -0 0 0 0 0 0 0 0 0 0 0 0 0 0 0 0
0 0 0 0 0 0 0 0 0 0 0 0 0 0 0 0 0 0 0 -0 -0 -0 -0 -0 -0 -0 -0 -0 0 0 0 0 0 0 0 0 0 0 0 0 0 0 0
0 0 0 0 0 0 0 0 0 0 0 0 0 0 0 0 -0 -0 -0 -0 -0 -0 -0 -0 -0 -0 -0 -0 0 0 0 0 0 0 0 0 0 0 0 0 0 0 0
0 0 0 0 0 0 0 0 0 0 0 0 0 0 0 0 0 -0 -0 -0 -0 -0 -0 -0 -0 -0 -0 -0 0 0 0 0 -0 0 0 0 0 0 0 0 0 0 0
0 0 0 0 0 0 0 0 0 0 0 0 0 0 0 0 0 0 0 0 0 -0 -0 -0 -0 -0 -0 -0 0 0 -0 -0 -0 0 0 0 0 0 0 0 0 0 0
0 0 0 0 0 0 0 0 0 0 0 0 0 0 0 0 0 0 0 0 0 0 0 0 0 -0 -0 -0 0 0 0 -0 -0 0 0 0 0 0 0 0 0 0 0
0 0 0 0 0 0 0 0 0 0 0 0 0 0 0 0 0 0 0 0 0 0 0 0 0 0 0 0 0 0 0 -0 -0 0 0 0 0 0 0 0 0 0 0
0 0 0 0 0 0 0 0 0 0 0 0 0 0 0 0 0 0 0 0 0 0 0 0 0 0 0 0 0 0 0 0 -0 0 0 0 0 0 0 0 0 0 0
0 0 0 0 0 0 0 0 0 0 0 0 0 0 0 0 0 0 0 0 0 0 0 0 0 0 0 0 0 0 0 0 0 0 0 0 0 0 0 0 0 0 0
0 0 0 0 0 0 0 0 0 0 0 0 0 0 0 0 0 0 0 0 0 0 0 0 0 0 0 0 0 0 0 0 0 0 0 0 0 0 0 0 0 0 0
0 0 0 0 0 0 0 0 0 0 0 0 0 0 0 0 0 0 0 0 0 0 0 0 0 0 0 0 0 0 0 0 0 0 0 0 0 0 0 0 0 0 0
0 0 0 0 0 0 0 0 0 0 0 0 0 0 0 0 0 0 0 0 0 0 0 0 0 0 0 0 0 0 0 0 0 0 0 0 0 0 0 0 0 0 0
0 0 0 0 0 0 0 0 0 0 0 0 0 0 0 0 0 0 0 0 0 0 0 0 0 0 0 0 0 0 0 0 0 0 0 0 0 0 0 0 0 0 0
0 0 0 0 0 0 0 0 0 0 0 0 0 0 0 0 0 0 0 0 0 0 0 0 0 -0 -0 -0 -0 0 0 0 0 0 0 0 0 0 0 0 -0 -0 0
0 0 0 0 0 0 0 0 0 0 0 0 0 0 0 0 0 0 0 0 0 0 0 0 0 0 0 0 -0 -0 0 0 0 0 0 0 0 -0 -0 -0 -0 -0 -0
0 0 0 0 0 0 0 0 0 0 0 0 0 0 0 0 0 0 0 0 0 0 0 0 0 0 0 0 0 -0 0 0 0 0 0 0 0 0 -0 -0 -0 -0 -0
1 0 0 0 0 0 0 0 0 0 0 0 0 0 0 0 0 0 0 0 0 0 0 0 0 0 0 0 0 0 -0 -0 -0 0 0 0 0 0 0 -0 -0 -0 -0
1 1 0 0 0 0 0 0 0 0 0 0 0 0 0 0 0 0 0 0 0 0 0 0 0 0 0 0 0 -0 -0 -0 -0 -0 -0 -0 0 0 0 0 0 -0 -0
1 0 0 0 0 0 0 0 0 0 0 0 0 0 0 0 0 0 0 0 0 0 0 0 0 0 0 0 0 0 -0 -0 -0 -0 -0 -0 -0 0 0 0 0 0 0
0 0 0 0 0 1 1 1 0 0 0 0 0 0 0 0 0 0 0 0 0 0 0 0 0 0 0 0 0 0 0 -0 -0 -0 -0 -0 -0 0 0 0 0 0 0
0 0 1 1 1 1 1 1 1 0 0 0 0 0 0 0 0 0 0 0 0 0 0 0 0 0 0 0 0 0 0 0 0 0 0 0 0 0 0 0 0 0 0
0 1 1 1 1 1 1 1 1 1 0 0 0 0 0 0 0 0 0 0 0 0 0 0 0 0 0 0 0 0 0 0 0 0 0 0 0 0 0 0 0 0 0
1 1 1 1 1 1 1 1 1 1 0 0 0 0 0 0 0 0 0 0 0 0 0 0 0 0 0 0 0 0 0 0 0 0 0 0 0 0 0 0 0 0 0
1 1 1 1 1 1 1 1 1 1 1 0 0 0 0 0 0 0 0 0 0 0 0 0 0 0 0 0 0 0 0 0 0 0 0 0 0 0 0 0 0 0 0
1 1 1 1 1 1 1 1 1 1 1 1 0 0 0 0 0 0 0 0 0 0 0 0 0 0 0 0 0 0 0 0 0 0 0 0 0 0 0 0 0 0 0
1 1 1 1 1 1 1 1 1 1 1 1 1 0 0 0 0 0 0 0 0 0 0 0 0 0 0 0 0 0 0 0 0 0 0 0 0 0 0 0 0 0 0
Wind_Speed
5 5 10 10 10 10 9 9 9 9 9 9 10 10 10 10 9 9 9 9 8 8 8 7 7 6 6 6 6 6 6 6 7 8 8 8 9 10 11 12 11 8 13
9 8 11 11 11 10 9 9 9 9 9 8 9 9 9 9 9 9 9 8 8 8 8 7 7 6 6 6 6 5 5 5 6 7 7 7 8 9 10 11 11 8 13
10 8 9 11 11 10 10 9 8 8 8 8 8 9 8 8 8 8 8 8 7 7 7 7 6 6 6 6 5 4 4 5 6 6 6 3 4 8 9 11 12 12 12
11 7 9 11 11 11 10 9 8 8 8 8 8 8 8 8 7 7 7 7 7 6 7 7 6 6 6 5 4 4 5 5 5 5 3 2 3 7 9 10 11 12 12
9 7 9 13 12 11 10 9 8 8 8 7 7 7 7 7 6 6 6 6 6 6 6 6 5 5 5 4 4 4 4 4 4 3 2 2 2 6 8 10 11 12 13
9 7 9 13 12 11 10 9 8 8 8 7 7 6 6 5 5 5 5 5 5 5 4 4 4 4 3 3 3 3 3 3 3 3 2 2 3 7 8 10 11 12 12
9 6 8 12 12 11 10 9 8 8 7 6 6 5 5 4 4 4 4 4 4 4 3 3 3 3 3 3 3 3 3 3 2 2 2 2 4 8 9 10 11 11 12
11 8 7 11 12 11 10 9 8 7 6 6 5 4 4 4 3 3 3 3 2 2 2 2 2 3 3 3 3 3 3 3 3 2 2 2 5 8 10 10 10 10 11
10 8 5 6 7 9 9 8 8 7 6 5 5 4 4 4 3 3 2 2 2 1 1 1 1 2 2 3 3 3 3 3 2 1 2 2 6 8 10 10 10 10 11
7 6 5 4 4 4 5 8 7 6 6 5 5 4 4 4 3 3 2 2 1 1 0 0 1 2 2 2 3 3 3 3 2 1 1 3 6 8 9 9 10 11 11
7 5 5 5 4 4 4 6 6 6 5 4 3 4 4 1 1 2 2 2 2 2 1 1 1 1 1 1 2 2 2 1 1 1 1 4 7 8 9 10 10 11 12
8 6 5 5 5 4 4 3 2 2 2 2 1 2 1 1 1 1 2 3 2 2 2 2 2 2 1 1 2 2 1 1 1 1 2 5 7 7 8 10 10 11 12
9 7 6 6 5 4 2 3 1 1 1 1 1 1 1 1 0 0 0 1 1 1 1 2 1 1 1 1 1 1 1 0 0 1 2 5 6 7 8 10 10 10 10
9 8 6 6 5 4 3 3 2 2 1 1 1 2 1 1 0 0 0 0 0 0 1 1 0 0 0 0 0 1 1 0 0 0 2 5 5 7 8 9 9 10 10
9 8 8 7 6 5 4 3 3 2 2 2 1 1 2 1 1 1 0 0 0 0 0 1 0 0 0 0 0 1 1 1 1 1 1 5 5 6 8 9 9 9 9
8 8 7 7 7 6 4 3 3 3 2 2 1 1 2 2 2 1 1 0 0 0 0 0 0 0 0 1 1 1 1 1 1 1 0 2 4 5 6 8 8 9 9
8 8 8 7 6 6 5 4 3 3 3 2 1 2 2 2 2 2 1 1 0 0 0 1 1 1 1 1 1 1 1 1 1 1 1 0 1 3 5 6 7 8 8
8 7 7 7 7 6 5 4 3 3 3 2 1 1 2 2 2 2 2 0 0 1 1 1 1 1 1 1 1 1 1 1 1 1 1 1 0 0 2 4 5 6 7
9 8 6 5 6 5 5 4 3 3 2 2 2 1 1 2 2 2 1 0 1 1 1 1 1 1 1 1 0 1 1 0 1 1 1 1 1 1 1 3 4 4 5
8 7 6 5 5 5 4 3 2 2 1 1 1 2 2 1 2 2 1 1 2 2 2 1 1 1 1 0 1 2 1 1 1 1 1 1 1 1 2 2 1 2 4
6 6 6 6 5 4 3 3 2 1 1 1 1 2 2 2 2 2 1 1 1 1 1 1 1 1 1 1 2 2 3 2 1 1 1 1 1 1 2 2 1 1 1
7 6 6 6 5 4 3 3 2 2 1 1 1 1 1 2 2 2 2 1 1 1 2 2 2 1 1 2 1 1 2 4 3 2 1 1 1 1 1 2 1 1 1
7 7 7 6 5 4 4 3 2 2 1 1 1 0 0 1 2 2 2 2 1 2 1 1 1 2 1 2 2 2 2 1 2 3 2 1 1 1 1 1 1 1 1
7 6 6 6 6 5 5 4 5 3 2 2 2 1 0 1 1 2 2 2 1 1 1 1 1 1 2 1 1 1 2 2 1 2 3 2 1 0 0 1 1 1 1
6 6 5 5 5 4 5 5 4 3 2 1 1 2 1 0 1 1 2 2 2 2 2 2 2 1 1 1 0 0 1 1 1 2 1 3 3 2 1 1 1 1 1
6 5 5 6 5 4 5 4 5 4 3 3 2 2 1 0 1 1 2 1 1 2 1 1 1 1 1 1 1 1 1 1 1 1 1 1 1 2 1 0 0 1 1
Wind_Direction
158 163 138 125 118 114 109 104 99 95 89 85 81 79 77 76 77 79 80 79 81 86 90 91 91 92 94 95 99 108 118 122 128 139 148 153 153 152 151 152 152 151 147
154 156 138 127 122 118 114 109 104 100 95 90 85 82 80 80 80 81 81 79 82 84 87 88 89 90 92 88 85 95 114 127 132 139 145 151 153 154 153 152 153 151 149
143 148 137 131 127 123 118 114 110 106 102 98 93 89 86 84 85 85 85 83 85 86 88 89 88 89 86 81 75 81 110 129 136 140 145 149 148 151 155 156 155 151 150
142 145 137 134 130 127 123 120 118 113 109 105 101 97 92 88 86 87 89 87 88 89 90 89 86 85 79 69 62 74 93 117 132 142 145 145 149 151 155 157 156 154 154
139 141 142 138 134 131 129 127 124 120 117 112 108 104 100 95 91 90 92 91 87 88 88 86 83 81 74 66 63 77 86 101 117 124 134 148 155 158 160 160 159 158 158
141 144 146 142 139 137 135 134 132 127 126 121 117 114 111 105 100 95 91 92 87 84 83 81 75 75 74 66 65 76 89 102 96 110 133 154 162 163 164 163 163 164 162
142 146 148 146 145 143 141 140 139 135 133 130 125 124 120 114 107 107 103 102 94 89 84 78 65 68 59 52 62 77 95 100 97 119 135 158 165 162 161 158 163 167 169
145 147 149 151 151 151 149 147 145 143 141 135 129 128 132 132 124 117 122 124 108 90 79 78 65 60 42 38 55 73 90 97 99 118 137 159 163 161 160 158 157 159 162
141 144 149 157 157 158 158 155 153 152 149 140 134 131 139 149 147 139 141 150 139 108 81 87 57 47 29 29 42 62 77 93 95 117 149 157 153 154 157 160 161 160 156
137 143 147 150 150 158 164 163 163 163 156 150 148 145 143 141 152 163 166 179 189 204 176 164 356 18 20 31 32 47 69 88 89 116 138 154 153 155 157 159 161 157 156
141 150 150 150 153 160 168 166 165 167 161 156 160 158 151 153 173 184 192 201 219 235 240 240 284 339 352 2 11 33 57 73 121 128 147 153 161 167 167 165 165 163 160
157 166 162 158 159 160 171 152 159 153 152 148 151 153 150 170 205 193 226 220 229 241 263 258 270 306 331 357 358 16 45 67 99 149 151 155 163 165 167 162 157 158 159
161 162 165 165 164 166 161 146 159 149 143 151 166 159 147 146 177 223 229 257 258 259 281 295 302 326 336 348 4 34 71 110 165 198 156 161 166 164 160 160 159 156 158
158 164 167 164 160 163 149 152 156 156 149 158 175 158 137 131 118 167 174 244 264 280 274 268 277 332 331 334 36 64 68 86 148 168 178 176 176 173 169 165 165 165 165
158 164 166 162 158 155 146 155 148 155 162 173 167 153 143 137 144 158 196 138 282 263 303 342 358 4 13 82 76 80 61 58 98 154 187 181 177 179 178 177 178 174 169
157 159 158 159 159 151 153 156 151 159 159 155 159 163 157 147 144 133 114 87 330 260 210 164 88 60 70 94 76 54 47 57 100 120 173 187 182 181 182 184 184 182 178
155 151 153 156 151 149 151 151 144 153 143 142 164 167 157 144 139 131 125 126 270 275 123 92 64 69 66 54 39 23 32 50 87 97 104 104 203 190 183 178 179 180 183
148 146 154 154 150 151 147 140 138 137 130 135 150 151 148 138 130 122 118 136 306 58 73 85 71 66 49 42 25 4 35 41 57 75 89 88 32 178 175 168 168 171 175
154 151 150 145 149 148 142 132 124 119 120 131 135 133 135 133 123 123 117 100 46 59 59 72 78 97 79 32 3 38 51 23 357 44 66 81 98 101 126 144 160 169 172
152 148 148 141 146 143 131 114 103 94 97 114 135 151 146 136 121 112 106 59 59 63 45 48 72 67 86 47 26 27 7 350 13 34 60 66 82 116 117 125 143 167 170
148 145 151 146 153 141 135 141 139 152 145 118 152 148 146 143 128 120 103 86 73 83 75 63 75 55 22 38 58 17 358 9 26 16 33 62 82 101 107 115 124 132 160
156 154 151 155 155 154 154 154 154 151 156 163 143 106 135 137 142 136 127 123 105 98 70 60 78 70 16 30 89 74 6 353 354 1 11 49 74 66 104 132 126 148 167
163 166 162 161 155 157 149 126 110 84 57 59 61 111 118 136 125 123 132 126 100 103 103 86 91 104 74 7 60 112 116 257 318 335 340 358 30 82 120 145 168 181 195
168 164 156 157 158 159 151 146 145 156 171 192 185 170 143 120 124 122 123 116 102 90 82 60 76 91 104 50 350 59 136 159 148 329 333 341 340 10 283 197 185 198 212
151 146 151 148 153 158 158 158 154 156 174 163 140 133 139 87 110 122 113 102 99 95 87 74 70 70 88 111 76 13 40 59 92 137 308 329 347 345 306 227 177 193 221
139 144 149 151 162 167 162 159 159 159 153 140 141 145 142 92 60 82 100 97 111 108 111 110 112 109 110 105 97 96 125 138 183 147 199 277 312 314 335 314 163 198 203